Location: Avoca
(45.7167°N, 74.7000°W)
Time: 15:11:05
(UTC+00:00)

Tiangong - Pass Details

Date: 05 December 2022
Orbit: 383 x 386 km, 41.5° (Epoch: 29 January)

Event Time Altitude Azimuth Distance (km) Brightness Sun altitude
Rises 23:09:57 0° 261° (W) 2,257 3.4 -19.3°
Reaches altitude 10° 23:12:05 10° 253° (WSW) 1,405 1.9 -19.7°
Maximum altitude 23:15:03 37° 184° (S) 620 -1.0 -20.2°
Enters shadow 23:15:09 37° 179° (S) 622 -1.1 -20.2°
